| time (UTC) | temp F | wind direction | speed knots | gust knots | rain 1hr in | rain 24hr in | rain mn in | humidity % | barometer mb |
| 20260509090404 | 70 | 122 | 5.2 | 11.3 | 0.00 | 0.00 | 0.00 | 66 | 1005.6 |
| 20260509084904 | 70 | 132 | 5.2 | 10.4 | 0.00 | 0.00 | 0.00 | 66 | 1006.1 |
| 20260509084404 | 70 | 137 | 4.3 | 10.4 | 0.00 | 0.00 | 0.00 | 66 | 1006.5 |
| 20260509083905 | 70 | 138 | 4.3 | 7.8 | 0.00 | 0.00 | 0.00 | 65 | 1006.9 |
| 20260509083405 | 70 | 120 | 3.5 | 6.1 | 0.00 | 0.00 | 0.00 | 65 | 1007.0 |
| 20260509082904 | 70 | 119 | 2.6 | 5.2 | 0.00 | 0.00 | 0.00 | 65 | 1007.2 |
| 20260509081904 | 70 | 144 | 3.5 | 7.0 | 0.00 | 0.00 | 0.00 | 65 | 1007.8 |
| 20260509081404 | 70 | 122 | 1.7 | 2.6 | 0.00 | 0.00 | 0.00 | 65 | 1007.9 |
| 20260509075905 | 70 | 159 | 2.6 | 4.3 | 0.00 | 0.00 | 0.00 | 64 | 1008.4 |
| 20260509074905 | 70 | 143 | 0.0 | 1.7 | 0.00 | 0.00 | 0.00 | 64 | 1008.5 |
| 20260509074405 | 69 | 143 | 0.9 | 1.7 | 0.00 | 0.00 | 0.00 | 64 | 1008.6 |
| 20260509073904 | 69 | 143 | 0.9 | 2.6 | 0.00 | 0.00 | 0.00 | 64 | 1008.7 |
| 20260509073404 | 69 | 140 | 0.9 | 2.6 | 0.00 | 0.00 | 0.00 | 64 | 1008.8 |
| 20260509072904 | 69 | 140 | 0.9 | 2.6 | 0.00 | 0.00 | 0.00 | 63 | 1009.0 |
| 20260509072405 | 69 | 140 | 0.9 | 1.7 | 0.00 | 0.00 | 0.00 | 63 | 1009.0 |
| 20260509071904 | 69 | 140 | 0.0 | 1.7 | 0.00 | 0.00 | 0.00 | 63 | 1008.9 |
| 20260509071404 | 70 | 140 | 0.9 | 1.7 | 0.00 | 0.00 | 0.00 | 63 | 1008.8 |
| 20260509070904 | 70 | 140 | 0.0 | 2.6 | 0.00 | 0.00 | 0.00 | 62 | 1008.5 |
| 20260509070404 | 70 | 140 | 1.7 | 2.6 | 0.00 | 0.00 | 0.00 | 62 | 1008.1 |
| 20260509064904 | 70 | 150 | 1.7 | 2.6 | 0.00 | 0.00 | 0.00 | 62 | 1008.1 |
| 20260509064404 | 70 | 147 | 0.9 | 2.6 | 0.00 | 0.00 | 0.00 | 61 | 1008.2 |
| 20260509063404 | 70 | 148 | 1.7 | 4.3 | 0.00 | 0.00 | 0.00 | 61 | 1008.0 |
| 20260509062904 | 71 | 161 | 3.5 | 4.3 | 0.00 | 0.00 | 0.00 | 61 | 1008.1 |
| 20260509062404 | 71 | 162 | 0.0 | 0.0 | 0.00 | 0.00 | 0.00 | 61 | 1008.5 |
| 20260509061404 | 71 | 162 | 0.9 | 2.6 | 0.00 | 0.00 | 0.00 | 61 | 1008.7 |
| 20260509060404 | 71 | 161 | 1.7 | 4.3 | 0.00 | 0.00 | 0.00 | 62 | 1008.8 |
| 20260509055905 | 71 | 152 | 3.5 | 5.2 | 0.00 | 0.00 | 0.00 | 62 | 1008.4 |
| 20260509055404 | 71 | 164 | 3.5 | 4.3 | 0.00 | 0.00 | 0.00 | 62 | 1008.6 |
| 20260509054904 | 71 | 15 | 0.0 | 1.7 | 0.00 | 0.00 | 0.00 | 61 | 1009.1 |
| 20260509054404 | 71 | 15 | 0.0 | 1.7 | 0.00 | 0.00 | 0.00 | 61 | 1009.1 |
| 20260509053904 | 71 | 15 | 0.9 | 2.6 | 0.00 | 0.00 | 0.00 | 61 | 1009.4 |
| 20260509053404 | 71 | 14 | 1.7 | 2.6 | 0.00 | 0.00 | 0.00 | 61 | 1009.4 |
| 20260509052904 | 71 | 358 | 2.6 | 2.6 | 0.00 | 0.00 | 0.00 | 61 | 1009.3 |
| 20260509052404 | 71 | 154 | 0.9 | 1.7 | 0.00 | 0.00 | 0.00 | 61 | 1008.7 |
| 20260509051904 | 71 | 150 | 2.6 | 6.1 | 0.00 | 0.00 | 0.00 | 61 | 1008.3 |
| 20260509050904 | 71 | 165 | 0.9 | 5.2 | 0.00 | 0.00 | 0.00 | 61 | 1008.5 |
| 20260509050405 | 71 | 152 | 3.5 | 7.8 | 0.00 | 0.00 | 0.00 | 61 | 1008.1 |
| 20260509045904 | 71 | 159 | 4.3 | 6.1 | 0.00 | 0.00 | 0.00 | 61 | 1008.0 |
| 20260509045404 | 71 | 178 | 2.6 | 7.0 | 0.00 | 0.00 | 0.00 | 60 | 1008.0 |
| 20260509044904 | 72 | 160 | 3.5 | 7.0 | 0.00 | 0.00 | 0.00 | 60 | 1007.7 |
| 20260509044404 | 72 | 146 | 4.3 | 7.0 | 0.00 | 0.00 | 0.00 | 60 | 1007.6 |
| 20260509043904 | 72 | 131 | 4.3 | 6.1 | 0.00 | 0.00 | 0.00 | 60 | 1007.9 |
| 20260509043404 | 72 | 117 | 1.7 | 2.6 | 0.00 | 0.00 | 0.00 | 60 | 1008.3 |
| 20260509042905 | 72 | 128 | 1.7 | 2.6 | 0.00 | 0.00 | 0.00 | 60 | 1008.3 |
| 20260509042404 | 72 | 127 | 0.9 | 2.6 | 0.00 | 0.00 | 0.00 | 60 | 1008.6 |
| 20260509041904 | 72 | 127 | 0.0 | 0.0 | 0.00 | 0.00 | 0.00 | 60 | 1008.9 |
| 20260509041404 | 72 | 127 | 0.0 | 0.0 | 0.00 | 0.00 | 0.00 | 60 | 1008.9 |
| 20260509040905 | 72 | 127 | 0.0 | 0.0 | 0.00 | 0.00 | 0.00 | 59 | 1009.0 |
| 20260509040404 | 72 | 127 | 0.0 | 0.0 | 0.00 | 0.00 | 0.00 | 60 | 1008.9 |
| 20260509034904 | 72 | 127 | 0.9 | 2.6 | 0.00 | 0.00 | 0.00 | 60 | 1008.7 |
| 20260509033904 | 72 | 126 | 0.9 | 2.6 | 0.00 | 0.00 | 0.00 | 59 | 1008.4 |
| 20260509033404 | 72 | 126 | 0.9 | 2.6 | 0.00 | 0.00 | 0.00 | 59 | 1008.3 |
| 20260509032904 | 72 | 126 | 0.9 | 1.7 | 0.00 | 0.00 | 0.00 | 59 | 1008.3 |
| 20260509031904 | 72 | 126 | 1.7 | 2.6 | 0.00 | 0.00 | 0.00 | 58 | 1008.2 |
| 20260509031404 | 72 | 125 | 1.7 | 4.3 | 0.00 | 0.00 | 0.00 | 58 | 1008.2 |
| 20260509030904 | 72 | 143 | 1.7 | 4.3 | 0.00 | 0.00 | 0.00 | 58 | 1008.1 |
| 20260509025904 | 72 | 130 | 1.7 | 2.6 | 0.00 | 0.00 | 0.00 | 58 | 1007.9 |
| 20260509025404 | 72 | 130 | 0.9 | 2.6 | 0.00 | 0.00 | 0.00 | 58 | 1007.9 |
| 20260509024904 | 72 | 130 | 0.9 | 2.6 | 0.00 | 0.00 | 0.00 | 58 | 1007.9 |
| 20260509024404 | 72 | 130 | 1.7 | 2.6 | 0.00 | 0.00 | 0.00 | 58 | 1007.8 |
| 20260509023905 | 72 | 130 | 0.9 | 2.6 | 0.00 | 0.00 | 0.00 | 58 | 1007.6 |
| 20260509023404 | 72 | 130 | 0.9 | 2.6 | 0.00 | 0.00 | 0.00 | 58 | 1007.5 |
| 20260509022404 | 72 | 139 | 2.6 | 4.3 | 0.00 | 0.00 | 0.00 | 58 | 1007.4 |
| 20260509021904 | 72 | 130 | 1.7 | 4.3 | 0.00 | 0.00 | 0.00 | 58 | 1007.3 |
| 20260509021404 | 72 | 130 | 1.7 | 2.6 | 0.00 | 0.00 | 0.00 | 58 | 1007.3 |
| 20260509020904 | 72 | 130 | 2.6 | 6.1 | 0.00 | 0.00 | 0.00 | 58 | 1007.5 |
| 20260509020404 | 72 | 144 | 2.6 | 4.3 | 0.00 | 0.00 | 0.00 | 57 | 1007.4 |
| 20260509015405 | 72 | 144 | 1.7 | 4.3 | 0.00 | 0.00 | 0.00 | 57 | 1007.4 |
| 20260509014904 | 73 | 144 | 2.6 | 2.6 | 0.00 | 0.00 | 0.00 | 57 | 1007.4 |
| 20260509014404 | 73 | 146 | 1.7 | 4.3 | 0.00 | 0.00 | 0.00 | 57 | 1007.3 |
| 20260509013904 | 73 | 146 | 1.7 | 2.6 | 0.00 | 0.00 | 0.00 | 57 | 1007.3 |
| 20260509012904 | 73 | 144 | 1.7 | 2.6 | 0.00 | 0.00 | 0.00 | 57 | 1007.2 |
| 20260509012404 | 73 | 144 | 1.7 | 2.6 | 0.00 | 0.00 | 0.00 | 56 | 1007.1 |
| 20260509011906 | 73 | 144 | 0.0 | 0.0 | 0.00 | 0.00 | 0.00 | 56 | 1007.1 |
| 20260509010905 | 73 | 144 | 0.9 | 2.6 | 0.00 | 0.00 | 0.00 | 55 | 1006.8 |
| 20260509004405 | 74 | 142 | 2.6 | 5.2 | 0.00 | 0.00 | 0.00 | 56 | 1006.5 |
| 20260509003904 | 74 | 153 | 2.6 | 6.1 | 0.00 | 0.00 | 0.00 | 55 | 1006.5 |
| 20260509003405 | 74 | 150 | 4.3 | 7.0 | 0.00 | 0.00 | 0.00 | 55 | 1006.5 |
| 20260509002404 | 74 | 143 | 3.5 | 7.8 | 0.00 | 0.00 | 0.00 | 55 | 1006.5 |
| 20260509001904 | 74 | 151 | 3.5 | 7.8 | 0.00 | 0.00 | 0.00 | 55 | 1006.6 |
| 20260509000904 | 74 | 144 | 1.7 | 4.3 | 0.00 | 0.00 | 0.00 | 54 | 1006.8 |
| 20260508235904 | 74 | 152 | 2.6 | 4.3 | 0.00 | 0.00 | 0.00 | 54 | 1006.9 |
| 20260508235404 | 74 | 145 | 2.6 | 5.2 | 0.00 | 0.00 | 0.00 | 54 | 1007.0 |
| 20260508234904 | 74 | 124 | 0.9 | 2.6 | 0.00 | 0.00 | 0.00 | 54 | 1007.1 |
| 20260508234404 | 74 | 124 | 4.3 | 8.7 | 0.00 | 0.00 | 0.00 | 54 | 1007.0 |
| 20260508233904 | 74 | 121 | 1.7 | 2.6 | 0.00 | 0.00 | 0.00 | 54 | 1007.1 |
| 20260508232904 | 74 | 82 | 1.7 | 5.2 | 0.00 | 0.00 | 0.00 | 53 | 1007.1 |
| 20260508232404 | 74 | 119 | 1.7 | 2.6 | 0.00 | 0.00 | 0.00 | 53 | 1007.0 |
| 20260508231905 | 74 | 136 | 2.6 | 4.3 | 0.00 | 0.00 | 0.00 | 53 | 1007.0 |
| 20260508231404 | 74 | 133 | 1.7 | 2.6 | 0.00 | 0.00 | 0.00 | 53 | 1007.1 |
| 20260508230904 | 74 | 133 | 2.6 | 4.3 | 0.00 | 0.00 | 0.00 | 53 | 1007.2 |
| 20260508225904 | 74 | 169 | 2.6 | 6.1 | 0.00 | 0.00 | 0.00 | 52 | 1007.2 |
| 20260508225404 | 75 | 142 | 2.6 | 5.2 | 0.00 | 0.00 | 0.00 | 52 | 1007.3 |
| 20260508224905 | 75 | 173 | 5.2 | 7.8 | 0.00 | 0.00 | 0.00 | 52 | 1007.2 |
| 20260508223904 | 75 | 148 | 5.2 | 8.7 | 0.00 | 0.00 | 0.00 | 51 | 1007.3 |
| 20260508223404 | 75 | 155 | 6.1 | 10.4 | 0.00 | 0.00 | 0.00 | 51 | 1007.2 |
| 20260508222904 | 75 | 172 | 7.0 | 10.4 | 0.00 | 0.00 | 0.00 | 51 | 1007.3 |
| 20260508222404 | 75 | 149 | 6.1 | 11.3 | 0.00 | 0.00 | 0.00 | 52 | 1007.3 |
| 20260508221904 | 75 | 160 | 7.8 | 10.4 | 0.00 | 0.00 | 0.00 | 53 | 1007.2 |
| 20260508221404 | 75 | 166 | 5.2 | 10.4 | 0.00 | 0.00 | 0.00 | 53 | 1007.2 |
| 20260508220904 | 75 | 180 | 4.3 | 8.7 | 0.00 | 0.00 | 0.00 | 53 | 1007.2 |
| 20260508220404 | 75 | 165 | 4.3 | 7.0 | 0.00 | 0.00 | 0.00 | 54 | 1007.1 |
| 20260508215904 | 74 | 165 | 5.2 | 7.0 | 0.00 | 0.00 | 0.00 | 54 | 1007.1 |
| 20260508215405 | 74 | 171 | 4.3 | 7.8 | 0.00 | 0.00 | 0.00 | 54 | 1007.0 |
| 20260508214904 | 74 | 126 | 3.5 | 7.8 | 0.00 | 0.00 | 0.00 | 55 | 1006.9 |
| 20260508214404 | 74 | 139 | 3.5 | 6.1 | 0.00 | 0.00 | 0.00 | 55 | 1007.0 |
| 20260508213904 | 74 | 163 | 1.7 | 4.3 | 0.00 | 0.00 | 0.00 | 56 | 1006.9 |
| 20260508213404 | 74 | 164 | 1.7 | 7.8 | 0.00 | 0.00 | 0.00 | 56 | 1006.9 |
| 20260508212904 | 73 | 190 | 1.7 | 7.8 | 0.00 | 0.00 | 0.00 | 55 | 1006.9 |
| 20260508212404 | 74 | 8 | 3.5 | 8.7 | 0.00 | 0.00 | 0.00 | 54 | 1006.6 |
| 20260508211904 | 74 | 124 | 6.1 | 11.3 | 0.00 | 0.00 | 0.00 | 53 | 1006.5 |
| 20260508211404 | 75 | 144 | 5.2 | 10.4 | 0.00 | 0.00 | 0.00 | 53 | 1007.6 |
| 20260508210904 | 75 | 187 | 4.3 | 8.7 | 0.00 | 0.00 | 0.00 | 52 | 1008.7 |
| 20260508210403 | 75 | 205 | 3.5 | 7.0 | 0.00 | 0.00 | 0.00 | 51 | 1008.3 |
| 20260508205904 | 75 | 175 | 5.2 | 8.7 | 0.00 | 0.00 | 0.00 | 50 | 1008.3 |
| 20260508205404 | 76 | 177 | 6.1 | 8.7 | 0.00 | 0.00 | 0.00 | 50 | 1008.8 |
| 20260508204904 | 76 | 179 | 6.1 | 10.4 | 0.00 | 0.00 | 0.00 | 49 | 1008.9 |
| 20260508204404 | 77 | 190 | 4.3 | 10.4 | 0.00 | 0.00 | 0.00 | 49 | 1009.0 |
| 20260508203904 | 77 | 188 | 4.3 | 10.4 | 0.00 | 0.00 | 0.00 | 49 | 1009.0 |
| 20260508203404 | 77 | 214 | 3.5 | 7.0 | 0.00 | 0.00 | 0.00 | 48 | 1009.0 |
| 20260508202904 | 77 | 191 | 2.6 | 6.1 | 0.00 | 0.00 | 0.00 | 48 | 1008.8 |
| 20260508201904 | 78 | 175 | 5.2 | 10.4 | 0.00 | 0.00 | 0.00 | 49 | 1008.7 |
| 20260508201404 | 78 | 169 | 4.3 | 7.0 | 0.00 | 0.00 | 0.00 | 48 | 1008.8 |
| 20260508200905 | 78 | 131 | 2.6 | 7.0 | 0.00 | 0.00 | 0.00 | 48 | 1008.8 |
| 20260508200404 | 78 | 109 | 5.2 | 8.7 | 0.00 | 0.00 | 0.00 | 48 | 1008.7 |
| 20260508195904 | 78 | 138 | 3.5 | 7.8 | 0.00 | 0.00 | 0.00 | 47 | 1008.7 |
| 20260508195404 | 78 | 167 | 5.2 | 7.8 | 0.00 | 0.00 | 0.00 | 48 | 1008.8 |
| 20260508194904 | 78 | 144 | 4.3 | 8.7 | 0.00 | 0.00 | 0.00 | 47 | 1008.9 |
| 20260508193905 | 78 | 138 | 6.1 | 8.7 | 0.00 | 0.00 | 0.00 | 47 | 1009.0 |
| 20260508193405 | 78 | 157 | 3.5 | 7.0 | 0.00 | 0.00 | 0.00 | 47 | 1008.9 |
| 20260508191904 | 79 | 163 | 4.3 | 10.4 | 0.00 | 0.00 | 0.00 | 47 | 1009.2 |
| 20260508191404 | 79 | 146 | 5.2 | 10.4 | 0.00 | 0.00 | 0.00 | 48 | 1009.3 |
| 20260508190904 | 79 | 154 | 3.5 | 10.4 | 0.00 | 0.00 | 0.00 | 47 | 1009.4 |
| 20260508190404 | 79 | 129 | 7.0 | 10.4 | 0.00 | 0.00 | 0.00 | 46 | 1009.4 |
| 20260508185904 | 79 | 168 | 7.0 | 10.4 | 0.00 | 0.00 | 0.00 | 47 | 1009.4 |
| 20260508184905 | 79 | 148 | 6.1 | 10.4 | 0.00 | 0.00 | 0.00 | 46 | 1009.5 |
| 20260508184405 | 79 | 159 | 6.1 | 10.4 | 0.00 | 0.00 | 0.00 | 45 | 1009.5 |
| 20260508183904 | 79 | 153 | 5.2 | 8.7 | 0.00 | 0.00 | 0.00 | 46 | 1009.5 |
| 20260508183404 | 79 | 172 | 5.2 | 10.4 | 0.00 | 0.00 | 0.00 | 48 | 1009.6 |
| 20260508182905 | 78 | 165 | 4.3 | 10.4 | 0.00 | 0.00 | 0.00 | 47 | 1009.6 |
| 20260508182404 | 78 | 171 | 4.3 | 8.7 | 0.00 | 0.00 | 0.00 | 47 | 1009.7 |
| 20260508181904 | 77 | 172 | 4.3 | 7.0 | 0.00 | 0.00 | 0.00 | 48 | 1009.8 |
| 20260508181404 | 77 | 133 | 5.2 | 10.4 | 0.00 | 0.00 | 0.00 | 49 | 1009.9 |
| 20260508180913 | 77 | 163 | 5.2 | 8.7 | 0.00 | 0.00 | 0.00 | 48 | 1010.0 |
| 20260508180405 | 76 | 94 | 0.9 | 5.2 | 0.00 | 0.00 | 0.00 | 48 | 1010.1 |
| 20260508175905 | 77 | 128 | 2.6 | 7.0 | 0.00 | 0.00 | 0.00 | 49 | 1010.2 |
| 20260508175404 | 76 | 107 | 5.2 | 8.7 | 0.00 | 0.00 | 0.00 | 48 | 1010.3 |
| 20260508174404 | 76 | 97 | 3.5 | 8.7 | 0.00 | 0.00 | 0.00 | 48 | 1010.5 |
| 20260508173905 | 76 | 149 | 3.5 | 7.0 | 0.00 | 0.00 | 0.00 | 48 | 1010.6 |
| 20260508173404 | 75 | 160 | 4.3 | 8.7 | 0.00 | 0.00 | 0.00 | 49 | 1010.7 |
| 20260508172904 | 75 | 147 | 4.3 | 7.8 | 0.00 | 0.00 | 0.00 | 47 | 1010.6 |
| 20260508172404 | 75 | 171 | 2.6 | 7.8 | 0.00 | 0.00 | 0.00 | 47 | 1010.8 |
| 20260508171904 | 75 | 93 | 2.6 | 7.8 | 0.00 | 0.00 | 0.00 | 48 | 1010.8 |
| 20260508171404 | 75 | 103 | 4.3 | 10.4 | 0.00 | 0.00 | 0.00 | 49 | 1010.9 |
| 20260508170903 | 75 | 113 | 4.3 | 7.0 | 0.00 | 0.00 | 0.00 | 50 | 1011.1 |
| 20260508170404 | 74 | 89 | 1.7 | 7.8 | 0.00 | 0.00 | 0.00 | 49 | 1011.3 |
| 20260508165904 | 74 | 122 | 3.5 | 7.8 | 0.00 | 0.00 | 0.00 | 50 | 1011.5 |
| 20260508165404 | 74 | 99 | 4.3 | 7.0 | 0.00 | 0.00 | 0.00 | 50 | 1011.7 |
| 20260508164904 | 74 | 111 | 5.2 | 8.7 | 0.00 | 0.00 | 0.00 | 50 | 1011.8 |
| 20260508164404 | 73 | 99 | 2.6 | 7.0 | 0.00 | 0.00 | 0.00 | 49 | 1011.8 |
| 20260508163904 | 73 | 102 | 2.6 | 7.8 | 0.00 | 0.00 | 0.00 | 50 | 1011.9 |
| 20260508163404 | 73 | 117 | 5.2 | 8.7 | 0.00 | 0.00 | 0.00 | 50 | 1012.0 |
| 20260508162904 | 73 | 118 | 5.2 | 10.4 | 0.00 | 0.00 | 0.00 | 50 | 1012.1 |
| 20260508162404 | 73 | 109 | 4.3 | 10.4 | 0.00 | 0.00 | 0.00 | 51 | 1012.2 |
| 20260508161904 | 73 | 168 | 5.2 | 10.4 | 0.00 | 0.00 | 0.00 | 50 | 1012.3 |
| 20260508160904 | 72 | 130 | 4.3 | 8.7 | 0.00 | 0.00 | 0.00 | 51 | 1012.2 |
| 20260508160404 | 71 | 134 | 3.5 | 7.8 | 0.00 | 0.00 | 0.00 | 52 | 1012.3 |
| 20260508153403 | 71 | 150 | 5.2 | 7.8 | 0.00 | 0.00 | 0.00 | 51 | 1012.8 |
| 20260508152904 | 71 | 157 | 5.2 | 8.7 | 0.00 | 0.00 | 0.00 | 51 | 1012.8 |
| 20260508152404 | 71 | 140 | 4.3 | 7.8 | 0.00 | 0.00 | 0.00 | 51 | 1012.8 |
| 20260508151904 | 71 | 145 | 2.6 | 8.7 | 0.00 | 0.00 | 0.00 | 51 | 1012.8 |
| 20260508151404 | 71 | 158 | 5.2 | 10.4 | 0.00 | 0.00 | 0.00 | 50 | 1012.8 |
| 20260508150904 | 71 | 143 | 3.5 | 7.0 | 0.00 | 0.00 | 0.00 | 51 | 1012.8 |
| 20260508150404 | 70 | 143 | 4.3 | 8.7 | 0.00 | 0.00 | 0.00 | 52 | 1012.8 |
| 20260508145905 | 70 | 121 | 4.3 | 7.8 | 0.00 | 0.00 | 0.00 | 51 | 1012.8 |
| 20260508145403 | 70 | 129 | 3.5 | 7.8 | 0.00 | 0.00 | 0.00 | 51 | 1012.7 |
| 20260508144904 | 70 | 135 | 5.2 | 7.8 | 0.00 | 0.00 | 0.00 | 51 | 1012.6 |
| 20260508144404 | 70 | 137 | 2.6 | 7.8 | 0.00 | 0.00 | 0.00 | 51 | 1012.5 |
| 20260508142904 | 69 | 108 | 1.7 | 10.4 | 0.00 | 0.00 | 0.00 | 52 | 1012.7 |
| 20260508141904 | 68 | 108 | 4.3 | 8.7 | 0.00 | 0.00 | 0.00 | 54 | 1012.9 |
| 20260508140904 | 67 | 121 | 5.2 | 8.7 | 0.00 | 0.00 | 0.00 | 55 | 1013.0 |
| 20260508140404 | 67 | 105 | 3.5 | 8.7 | 0.00 | 0.00 | 0.00 | 54 | 1013.1 |
| 20260508135904 | 66 | 130 | 4.3 | 7.8 | 0.00 | 0.00 | 0.00 | 56 | 1013.2 |
| 20260508135404 | 66 | 114 | 5.2 | 10.4 | 0.00 | 0.00 | 0.00 | 57 | 1013.0 |
| 20260508134904 | 65 | 101 | 5.2 | 8.7 | 0.00 | 0.00 | 0.00 | 57 | 1013.0 |
| 20260508133904 | 64 | 110 | 3.5 | 8.7 | 0.00 | 0.00 | 0.00 | 58 | 1013.1 |
| 20260508133404 | 64 | 102 | 4.3 | 7.0 | 0.00 | 0.00 | 0.00 | 59 | 1013.0 |
| 20260508132904 | 63 | 103 | 2.6 | 5.2 | 0.00 | 0.00 | 0.00 | 60 | 1013.0 |
| 20260508132404 | 63 | 90 | 3.5 | 7.0 | 0.00 | 0.00 | 0.00 | 62 | 1013.1 |
| 20260508131904 | 62 | 125 | 2.6 | 5.2 | 0.00 | 0.00 | 0.00 | 62 | 1013.2 |
| 20260508131404 | 62 | 76 | 1.7 | 2.6 | 0.00 | 0.00 | 0.00 | 64 | 1013.3 |
| 20260508130904 | 61 | 63 | 2.6 | 4.3 | 0.00 | 0.00 | 0.00 | 65 | 1013.4 |
| 20260508130403 | 61 | 69 | 1.7 | 2.6 | 0.00 | 0.00 | 0.00 | 65 | 1013.4 |
| 20260508125904 | 60 | 67 | 0.9 | 2.6 | 0.00 | 0.00 | 0.00 | 65 | 1013.4 |
| 20260508125404 | 60 | 67 | 1.7 | 2.6 | 0.00 | 0.00 | 0.00 | 65 | 1013.4 |
| 20260508124904 | 60 | 71 | 0.9 | 2.6 | 0.00 | 0.00 | 0.00 | 65 | 1013.2 |
| 20260508124404 | 60 | 71 | 0.9 | 2.6 | 0.00 | 0.00 | 0.00 | 65 | 1013.2 |
| 20260508123903 | 60 | 72 | 1.7 | 2.6 | 0.00 | 0.00 | 0.00 | 65 | 1013.1 |
| 20260508123404 | 60 | 76 | 1.7 | 2.6 | 0.00 | 0.00 | 0.00 | 65 | 1012.9 |
| 20260508122904 | 60 | 76 | 1.7 | 2.6 | 0.00 | 0.00 | 0.00 | 66 | 1013.0 |
| 20260508122404 | 60 | 76 | 0.9 | 1.7 | 0.00 | 0.00 | 0.00 | 66 | 1013.1 |
| 20260508121903 | 60 | 76 | 0.0 | 2.6 | 0.00 | 0.00 | 0.00 | 66 | 1013.3 |
| 20260508121404 | 60 | 76 | 1.7 | 2.6 | 0.00 | 0.00 | 0.00 | 66 | 1013.3 |
| 20260508120903 | 60 | 76 | 0.9 | 1.7 | 0.00 | 0.00 | 0.00 | 66 | 1013.3 |
| 20260508120404 | 60 | 76 | 0.9 | 2.6 | 0.00 | 0.00 | 0.00 | 66 | 1013.2 |
| 20260508115904 | 60 | 76 | 0.9 | 2.6 | 0.00 | 0.00 | 0.00 | 66 | 1013.3 |
| 20260508115404 | 60 | 76 | 0.0 | 0.9 | 0.00 | 0.00 | 0.00 | 66 | 1013.4 |
| 20260508114904 | 60 | 76 | 0.9 | 2.6 | 0.00 | 0.00 | 0.00 | 65 | 1013.4 |
| 20260508114404 | 60 | 76 | 0.9 | 1.7 | 0.00 | 0.00 | 0.00 | 66 | 1013.4 |
| 20260508113904 | 59 | 76 | 0.9 | 2.6 | 0.00 | 0.00 | 0.00 | 66 | 1013.5 |
| 20260508112904 | 59 | 319 | 0.0 | 0.0 | 0.00 | 0.00 | 0.00 | 65 | 1013.8 |
| 20260508112404 | 59 | 319 | 0.9 | 2.6 | 0.00 | 0.00 | 0.00 | 65 | 1013.9 |
| 20260508111904 | 59 | 319 | 1.7 | 4.3 | 0.00 | 0.00 | 0.00 | 65 | 1014.1 |
| 20260508110404 | 59 | 230 | 0.9 | 1.7 | 0.00 | 0.00 | 0.00 | 65 | 1013.5 |
| 20260508105403 | 59 | 227 | 2.6 | 2.6 | 0.00 | 0.00 | 0.00 | 65 | 1013.2 |
| 20260508104904 | 59 | 120 | 0.0 | 1.7 | 0.00 | 0.00 | 0.00 | 65 | 1012.8 |
| 20260508104404 | 59 | 120 | 0.0 | 2.6 | 0.00 | 0.00 | 0.00 | 65 | 1012.6 |
| 20260508103904 | 59 | 119 | 1.7 | 2.6 | 0.00 | 0.00 | 0.00 | 65 | 1012.3 |
| 20260508103404 | 59 | 122 | 2.6 | 2.6 | 0.00 | 0.00 | 0.00 | 65 | 1012.2 |
| 20260508102903 | 59 | 121 | 1.7 | 2.6 | 0.00 | 0.00 | 0.00 | 65 | 1012.3 |
| 20260508102404 | 59 | 121 | 1.7 | 2.6 | 0.00 | 0.00 | 0.00 | 65 | 1012.3 |
| 20260508101904 | 59 | 121 | 0.9 | 1.7 | 0.00 | 0.00 | 0.00 | 65 | 1012.3 |
| 20260508101404 | 59 | 121 | 0.9 | 1.7 | 0.00 | 0.00 | 0.00 | 65 | 1012.6 |
| 20260508100904 | 59 | 121 | 0.9 | 2.6 | 0.00 | 0.00 | 0.00 | 65 | 1012.5 |
| 20260508095904 | 60 | 121 | 0.9 | 1.7 | 0.00 | 0.00 | 0.00 | 65 | 1012.5 |
| 20260508094904 | 60 | 121 | 0.0 | 2.6 | 0.00 | 0.00 | 0.00 | 65 | 1012.5 |
| 20260508094403 | 60 | 121 | 0.9 | 2.6 | 0.00 | 0.00 | 0.00 | 65 | 1012.3 |
| 20260508093904 | 60 | 121 | 0.0 | 1.7 | 0.00 | 0.00 | 0.00 | 65 | 1012.6 |
| 20260508093404 | 60 | 121 | 1.7 | 2.6 | 0.00 | 0.00 | 0.00 | 65 | 1012.5 |
| 20260508092904 | 60 | 121 | 0.9 | 1.7 | 0.00 | 0.00 | 0.00 | 65 | 1012.5 |
| 20260508092403 | 60 | 121 | 1.7 | 2.6 | 0.00 | 0.00 | 0.00 | 65 | 1012.5 |
| 20260508091903 | 60 | 121 | 0.9 | 4.3 | 0.00 | 0.00 | 0.00 | 65 | 1012.6 |
| 20260508091404 | 60 | 133 | 1.7 | 4.3 | 0.00 | 0.00 | 0.00 | 65 | 1012.4 |
| 20260508090904 | 60 | 113 | 2.6 | 5.2 | 0.00 | 0.00 | 0.00 | 65 | 1012.4 |